This is the latest recevied weather packets stored in our database for station/object DL7KAW-10. If no packets are shown the sender has not sent any weather packets the latest 10 day(s).
| Time | Temp. | Humidity | Pressure | Rain* | Wind** | Luminosity | Snow |
|---|---|---|---|---|---|---|---|
| 1788165092 | 21.67° C | 64% | 1012 hPa | - | - | - | - |
| 1788164192 | 21.67° C | 65% | 1012.1 hPa | - | - | - | - |
| 1788163292 | 21.67° C | 65% | 1011.9 hPa | - | - | - | - |
| 1788162392 | 21.11° C | 65% | 1011.6 hPa | - | - | - | - |
| 1788161491 | 21.11° C | 65% | 1011.8 hPa | - | - | - | - |
| 1788160591 | 21.11° C | 64% | 1012 hPa | - | - | - | - |
| 1788159691 | 21.11° C | 64% | 1012.2 hPa | - | - | - | - |
| 1788158791 | 21.11° C | 65% | 1012.3 hPa | - | - | - | - |
| 1788157891 | 21.11° C | 65% | 1012.3 hPa | - | - | - | - |
| 1788156991 | 20.56° C | 65% | 1012.2 hPa | - | - | - | - |
| 1788156091 | 20.56° C | 66% | 1012.2 hPa | - | - | - | - |
| 1788155191 | 20.56° C | 66% | 1012 hPa | - | - | - | - |
| 1788154291 | 20.56° C | 67% | 1012.1 hPa | - | - | - | - |
| 1788153390 | 20.56° C | 67% | 1012.1 hPa | - | - | - | - |
| 1788152490 | 20° C | 67% | 1011.9 hPa | - | - | - | - |
| 1788151590 | 20.56° C | 67% | 1012 hPa | - | - | - | - |
| 1788150690 | 20° C | 68% | 1012.2 hPa | - | - | - | - |
| 1788149790 | 20.56° C | 67% | 1012.2 hPa | - | - | - | - |
| 1788148890 | 20° C | 68% | 1012.4 hPa | - | - | - | - |
| 1788147990 | 20.56° C | 67% | 1012.3 hPa | - | - | - | - |
| 1788147090 | 21.11° C | 66% | 1012.2 hPa | - | - | - | - |
| 1788146189 | 21.11° C | 66% | 1012.2 hPa | - | - | - | - |
| 1788145289 | 21.11° C | 66% | 1012.2 hPa | - | - | - | - |
| 1788144389 | 20.56° C | 66% | 1012.3 hPa | - | - | - | - |
| 1788143489 | 21.11° C | 65% | 1012.4 hPa | - | - | - | - |
* Rain since midnight (hover to see other rain measurements)
** Current wind speed in m/s (hover to see current wind gust speed)